This is the latest recevied weather packets stored in our database for station/object KC9GSD. If no packets are shown the sender has not sent any weather packets the latest 10 day(s).
| Time | Temp. | Humidity | Pressure | Rain* | Wind** | Luminosity | Snow |
|---|---|---|---|---|---|---|---|
| 1777750978 | 18.89° C | 37% | 1014.9 hPa | 0 mm | - | 760 W/m² | - |
| 1777750674 | 18.33° C | 46% | 1014.9 hPa | 0 mm | - | 753 W/m² | - |
| 1777750372 | 18.89° C | 37% | 1014.9 hPa | 0 mm | - | 761 W/m² | - |
| 1777750072 | 18.33° C | 43% | 1015 hPa | 0 mm | - | 768 W/m² | - |
| 1777749769 | 19.44° C | 40% | 1015 hPa | 0 mm | - | 779 W/m² | - |
| 1777749466 | 19.44° C | 41% | 1015 hPa | 0 mm | - | 787 W/m² | - |
| 1777749164 | 18.89° C | 39% | 1015.1 hPa | 0 mm | - | 794 W/m² | - |
| 1777748861 | 18.89° C | 34% | 1014.9 hPa | 0 mm | - | 797 W/m² | - |
| 1777748559 | 18.33° C | 35% | 1015 hPa | 0 mm | - | 804 W/m² | - |
| 1777748258 | 18.89° C | 33% | 1015 hPa | 0 mm | - | 812 W/m² | - |
| 1777747955 | 18.33° C | 39% | 1015 hPa | 0 mm | - | 816 W/m² | - |
| 1777747652 | 18.33° C | 40% | 1015 hPa | 0 mm | - | 822 W/m² | - |
| 1777747347 | 18.33° C | 35% | 1015 hPa | 0 mm | - | 767 W/m² | - |
| 1777747044 | 18.89° C | 42% | 1015.1 hPa | 0 mm | - | 832 W/m² | - |
| 1777746740 | 18.89° C | 44% | 1015 hPa | 0 mm | - | 832 W/m² | - |
| 1777746436 | 18.33° C | 38% | 1015.2 hPa | 0 mm | - | 880 W/m² | - |
| 1777746131 | 17.78° C | 36% | 1015 hPa | 0 mm | - | 920 W/m² | - |
| 1777745829 | 18.33° C | 37% | 1015 hPa | 0 mm | - | 507 W/m² | - |
| 1777745528 | 18.33° C | 41% | 1015.2 hPa | 0 mm | - | 654 W/m² | - |
| 1777745225 | 18.33° C | 46% | 1015.3 hPa | 0 mm | - | 633 W/m² | - |
| 1777744922 | 17.78° C | 38% | 1015.4 hPa | 0 mm | - | 626 W/m² | - |
| 1777744621 | 17.78° C | 39% | 1015.3 hPa | 0 mm | - | 770 W/m² | - |
| 1777744317 | 17.78° C | 41% | 1015.5 hPa | 0 mm | - | 687 W/m² | - |
| 1777744014 | 17.78° C | 41% | 1015.5 hPa | 0 mm | - | 815 W/m² | - |
| 1777743710 | 17.78° C | 38% | 1015.5 hPa | 0 mm | - | 889 W/m² | - |
* Rain latest hour (hover to see other rain measurements)
** Current wind speed in m/s (hover to see current wind gust speed)